Wind_Speed
27 28 28 30 31 32 32 31 31 31 31 32 31 31 32 33 33 34 34 35 36 36 36 36 36 37 37 37 38 39 41 43 49 49 43 43 41 40 37 43 53 59 72
29 29 29 30 32 32 31 31 31 31 32 32 31 32 33 34 35 34 33 34 35 36 37 38 37 37 37 38 39 39 39 41 47 54 49 44 42 40 44 40 46 53 61
30 30 30 31 31 31 30 30 30 31 31 32 32 33 34 34 34 34 35 36 38 39 41 41 41 40 39 39 40 41 40 40 44 48 51 45 44 42 42 42 42 46 52
30 30 30 31 30 29 29 29 30 30 31 33 34 33 32 36 37 37 38 40 42 43 44 44 44 44 42 41 40 41 41 43 43 45 48 49 46 42 42 45 39 41 48
29 29 30 30 29 28 28 29 29 30 32 33 33 35 35 38 37 38 40 42 44 45 46 46 45 46 44 43 42 42 41 42 44 45 46 48 45 44 40 40 43 39 42
28 28 29 27 27 27 28 28 30 31 31 32 35 36 36 40 39 40 42 43 43 43 44 44 43 43 43 42 40 40 41 43 43 45 45 48 46 45 43 40 42 40 44
27 28 27 26 26 26 27 29 30 30 31 33 34 36 38 40 42 40 42 41 40 39 39 40 43 43 41 41 39 37 38 38 41 43 44 43 46 44 44 39 39 42 40
26 26 25 25 25 26 28 29 28 29 30 31 34 35 38 39 42 41 43 42 41 40 39 39 40 43 42 41 41 38 35 36 37 40 41 41 43 44 42 42 41 42 43
25 25 24 24 25 27 28 26 27 28 29 31 33 36 38 40 42 42 43 43 43 41 40 39 39 41 41 40 41 40 35 33 33 35 37 38 38 40 41 41 39 40 41
24 24 24 24 26 27 26 26 26 27 29 32 34 35 37 40 42 42 42 43 44 43 40 39 38 38 39 38 38 39 37 33 33 31 29 31 32 34 34 35 36 35 34
24 24 24 25 26 26 25 25 26 27 30 32 34 35 37 39 40 40 39 40 41 41 42 41 39 37 36 35 35 35 35 33 32 31 30 30 28 30 30 30 32 34 28
23 23 25 25 26 24 24 24 25 27 30 32 34 36 37 39 40 39 38 37 38 39 40 40 39 37 35 33 32 32 31 31 30 28 29 28 26 27 24 23 26 28 25
22 24 25 25 24 23 24 24 25 27 29 32 35 37 38 39 39 38 37 37 37 38 38 38 37 35 34 31 30 30 28 29 28 25 26 25 23 24 20 17 20 22 23
23 24 25 24 23 23 23 24 25 26 29 32 35 38 40 40 40 40 39 38 37 37 36 36 35 34 32 30 29 27 26 25 26 25 24 23 22 20 17 16 13 18 20
24 24 24 21 22 23 23 23 24 26 29 32 36 39 41 41 41 40 39 39 40 39 37 35 35 33 31 28 26 25 24 22 21 21 21 19 17 16 14 11 9 5 12
24 23 22 21 22 22 23 25 25 26 29 32 35 39 40 40 38 37 36 36 37 36 35 35 34 33 31 30 28 26 23 22 21 20 21 20 18 17 15 13 11 5 6
23 22 21 21 21 21 22 23 23 25 28 32 36 38 37 38 37 36 35 35 35 34 34 33 33 32 31 29 28 27 25 23 22 21 21 21 18 16 14 14 10 6 5
23 22 21 21 21 22 23 24 25 26 29 32 35 37 36 35 34 34 34 34 33 32 32 32 32 31 30 29 27 27 25 23 22 21 19 20 19 17 14 12 11 7 5
22 21 21 21 22 23 24 25 26 28 30 33 36 36 35 33 32 33 34 34 34 32 31 31 31 31 30 28 27 26 25 24 23 22 20 19 19 16 14 12 9 8 6
21 21 21 22 23 24 25 26 27 29 31 33 36 38 35 33 31 31 33 34 33 32 31 30 30 30 30 29 27 26 24 22 21 20 20 18 17 17 14 12 10 8 5
22 21 23 23 24 25 26 27 28 30 32 34 35 37 36 34 33 33 35 36 34 32 30 29 29 29 29 29 28 26 24 23 21 20 20 19 17 14 13 12 10 8 6
23 23 23 23 24 25 27 27 29 30 32 34 35 35 35 34 33 34 36 37 35 32 30 29 28 28 28 28 28 27 25 24 21 18 17 17 17 15 14 12 10 8 6
23 23 24 24 25 26 27 28 29 31 33 34 36 36 35 34 34 34 37 38 35 32 29 28 28 26 26 26 27 27 26 25 23 21 18 16 15 14 13 12 10 9 8
24 24 25 25 26 26 28 29 30 31 34 36 37 36 35 35 35 36 38 38 35 32 29 28 27 27 25 25 25 25 25 25 24 22 20 18 16 14 13 11 9 9 7
24 25 25 26 27 28 29 30 31 32 34 36 37 37 36 36 36 38 39 37 34 32 29 28 27 26 25 24 24 24 24 23 23 22 21 19 17 15 13 12 10 8 8
25 25 26 26 27 28 29 30 31 32 34 37 38 37 37 37 38 40 38 36 34 32 31 29 28 27 26 25 23 23 23 22 22 21 21 19 17 14 13 12 11 9 8
Wind_Direction
277 287 296 302 309 314 315 315 316 315 315 316 316 318 318 318 318 318 317 316 315 315 315 313 312 310 308 307 304 300 297 294 292 296 303 302 289 287 279 264 254 248 241
276 285 294 301 307 311 313 313 315 315 315 315 317 319 319 318 319 319 318 317 316 315 315 314 313 311 309 307 306 304 300 296 293 293 295 302 295 283 285 274 257 250 245
276 283 292 300 307 311 312 313 314 315 315 316 317 319 319 317 317 318 318 316 314 314 313 313 312 310 308 306 305 305 304 299 296 295 297 299 301 292 289 282 265 257 247
276 285 294 302 308 310 312 312 313 314 314 315 317 318 318 314 315 316 315 313 311 311 309 308 307 306 306 304 303 303 303 302 299 296 297 295 301 300 295 288 266 259 250
277 286 295 305 307 309 311 311 312 314 315 318 318 317 319 315 319 320 316 313 311 310 308 307 306 304 302 301 301 299 300 299 300 298 296 294 298 299 297 287 274 263 243
277 287 298 303 304 308 310 311 313 315 318 318 317 317 320 317 321 322 318 316 314 314 313 313 312 308 304 301 298 297 299 299 299 299 297 299 296 304 301 291 277 267 248
282 292 299 300 303 306 308 311 313 316 318 317 318 321 321 319 321 323 318 319 319 319 317 315 314 313 311 307 301 297 295 296 298 299 298 301 297 305 300 292 280 272 255
285 292 296 300 303 306 308 310 313 316 316 318 321 323 320 321 321 323 321 322 322 323 323 321 317 314 314 311 305 301 296 295 295 297 297 299 295 304 300 293 287 272 255
288 291 294 299 302 305 307 309 314 315 317 321 323 323 322 321 322 325 323 323 323 325 325 324 322 317 314 313 308 304 300 295 293 294 295 296 294 301 298 293 286 275 256
286 289 295 299 301 303 305 311 313 316 320 323 324 324 323 323 324 324 324 325 325 326 325 325 324 319 315 313 309 307 305 301 295 292 289 289 290 300 293 289 286 279 267
285 291 296 298 300 302 306 309 313 319 322 324 325 325 325 325 324 325 326 326 327 328 327 327 326 323 318 315 311 308 307 306 302 304 302 300 296 302 296 287 278 272 264
288 291 294 298 300 303 306 310 316 321 323 325 326 328 328 327 326 328 329 330 330 330 329 328 328 326 322 318 313 309 308 306 305 309 307 308 300 305 296 283 268 255 255
287 292 297 300 300 303 306 311 318 321 323 326 328 330 330 330 330 331 332 332 332 333 332 330 330 327 323 321 317 314 311 308 308 312 311 317 309 313 306 287 261 240 230
289 295 297 297 299 303 305 312 317 322 325 329 331 332 333 333 333 333 333 333 334 334 332 332 331 330 328 324 320 317 314 313 316 319 318 323 320 316 314 292 262 236 224
291 292 293 293 296 299 304 311 318 324 329 332 333 335 335 335 335 335 335 334 334 334 334 334 332 331 330 327 323 322 321 317 317 321 321 326 329 320 326 310 287 241 218
290 291 290 291 295 301 309 314 320 325 329 333 335 337 338 336 334 333 334 334 333 333 335 335 335 335 333 332 331 329 328 326 325 330 332 335 339 332 329 329 318 309 217
290 289 286 290 297 305 309 314 320 326 330 334 336 337 337 334 333 333 334 334 333 333 335 336 337 337 336 335 334 333 333 334 332 334 336 340 344 346 340 332 326 304 237
288 286 288 294 300 305 309 314 319 324 329 334 337 337 337 334 333 333 333 333 332 332 335 337 338 339 338 336 336 335 334 334 333 333 337 340 346 349 351 342 338 320 263
286 285 290 295 300 304 308 312 318 324 329 333 336 336 336 334 333 333 334 333 332 333 334 336 338 339 339 338 336 336 335 336 335 334 336 338 342 348 354 352 346 322 301
286 287 290 294 300 304 308 314 320 324 329 333 335 335 335 333 332 332 334 334 332 331 331 332 335 337 338 338 337 335 335 335 333 332 333 336 340 343 347 348 342 350 326
286 286 290 295 300 305 310 315 320 325 328 332 334 334 333 333 332 332 333 334 332 329 328 328 330 333 336 337 337 335 335 336 335 333 331 331 332 336 340 343 342 340 342
286 288 289 294 300 306 310 315 319 323 328 331 332 332 331 331 330 330 331 332 330 327 325 325 326 327 331 334 336 336 335 335 335 333 331 328 328 327 330 332 335 334 331
287 289 292 296 301 305 309 313 319 323 326 329 331 331 330 329 328 327 329 330 328 325 323 322 321 321 323 328 331 334 335 333 334 334 333 331 328 325 325 322 323 321 320
288 290 293 297 300 304 309 313 318 322 325 328 329 329 328 327 326 326 327 327 326 324 322 318 318 317 317 319 324 329 331 331 331 331 331 328 326 323 320 320 318 312 312
290 290 293 296 300 304 308 313 317 321 324 326 327 327 326 325 325 325 326 325 324 323 320 316 314 313 313 312 315 321 325 327 327 326 325 325 322 320 317 313 310 306 305
289 290 292 295 299 304 309 313 316 319 322 324 325 326 325 324 324 324 324 323 322 320 319 317 312 308 308 308 308 311 316 320 322 321 320 320 319 315 309 305 302 299 294
Height
3057 3057 3056 3054 3051 3046 3043 3040 3036 3032 3027 3024 3021 3016 3012 3008 3002 2998 2993 2988 2983 2978 2974 2969 2965 2960 2955 2950 2945 2940 2935 2930 2919 2914 2915 2913 2913 2910 2912 2910 2908 2910 2914
3052 3050 3049 3047 3045 3041 3037 3034 3030 3025 3021 3017 3014 3010 3005 3000 2996 2991 2986 2982 2976 2971 2966 2961 2956 2951 2946 2941 2935 2931 2926 2921 2913 2902 2903 2903 2899 2899 2895 2894 2893 2895 2896
3045 3045 3044 3041 3038 3035 3031 3027 3022 3019 3014 3011 3007 3004 2998 2994 2989 2985 2980 2974 2969 2963 2958 2952 2946 2941 2937 2932 2927 2921 2916 2910 2906 2896 2887 2890 2886 2885 2881 2879 2878 2879 2881
3039 3039 3037 3035 3031 3028 3024 3021 3017 3013 3008 3005 3000 2996 2993 2987 2983 2978 2972 2966 2960 2955 2949 2943 2937 2931 2926 2921 2916 2911 2906 2899 2894 2889 2881 2876 2874 2873 2868 2861 2864 2864 2865
3033 3032 3030 3027 3024 3021 3018 3015 3011 3007 3002 2998 2993 2990 2986 2978 2976 2970 2963 2958 2951 2945 2939 2933 2927 2921 2915 2910 2905 2900 2895 2889 2883 2878 2872 2865 2864 2860 2857 2852 2847 2850 2855
3027 3025 3023 3020 3017 3014 3012 3008 3005 3000 2996 2992 2988 2983 2978 2970 2967 2962 2955 2949 2943 2936 2929 2922 2916 2910 2904 2900 2896 2890 2885 2878 2873 2867 2862 2855 2853 2848 2844 2841 2836 2837 2840
3022 3019 3016 3014 3010 3008 3005 3002 2998 2994 2989 2986 2981 2976 2971 2964 2958 2954 2947 2940 2933 2927 2920 2913 2905 2899 2894 2888 2885 2880 2877 2871 2864 2857 2851 2849 2840 2839 2832 2830 2827 2825 2828
3014 3012 3008 3008 3005 3002 2999 2996 2991 2987 2984 2980 2974 2969 2963 2957 2950 2946 2938 2931 2923 2918 2911 2904 2896 2889 2884 2878 2872 2868 2865 2861 2855 2849 2842 2837 2831 2826 2822 2818 2813 2812 2815
3009 3007 3003 3000 2999 2996 2993 2989 2985 2982 2978 2973 2968 2963 2957 2950 2943 2937 2929 2922 2915 2909 2902 2895 2888 2880 2874 2869 2861 2856 2854 2851 2846 2841 2835 2828 2823 2818 2813 2807 2805 2802 2801
3003 3001 2997 2995 2993 2990 2987 2983 2980 2976 2972 2967 2962 2957 2951 2944 2937 2930 2922 2913 2906 2900 2894 2888 2882 2873 2866 2860 2853 2846 2842 2839 2834 2831 2828 2822 2816 2810 2805 2800 2795 2793 2794
2997 2994 2992 2990 2987 2984 2980 2977 2974 2970 2966 2962 2957 2952 2946 2938 2931 2923 2915 2907 2899 2892 2884 2878 2873 2866 2859 2853 2847 2840 2834 2829 2825 2820 2816 2811 2807 2803 2797 2793 2790 2787 2787
2989 2988 2986 2984 2981 2978 2975 2972 2968 2964 2960 2956 2951 2945 2939 2932 2924 2916 2908 2900 2893 2885 2878 2871 2865 2858 2851 2846 2840 2834 2828 2823 2817 2813 2808 2803 2799 2795 2790 2784 2783 2781 2779
2984 2982 2980 2978 2975 2972 2969 2966 2962 2958 2954 2950 2944 2938 2932 2924 2916 2908 2901 2894 2887 2880 2873 2865 2858 2852 2846 2840 2834 2827 2822 2817 2811 2807 2802 2797 2791 2788 2782 2778 2775 2773 2774
2978 2976 2974 2971 2968 2966 2963 2959 2956 2952 2948 2943 2937 2931 2923 2916 2908 2900 2893 2887 2881 2875 2868 2861 2853 2846 2840 2834 2828 2823 2817 2812 2805 2800 2797 2792 2786 2783 2778 2774 2771 2769 2770
2971 2970 2967 2964 2962 2959 2956 2953 2949 2945 2941 2936 2930 2923 2915 2908 2900 2893 2886 2879 2873 2868 2861 2855 2848 2841 2835 2830 2824 2818 2813 2808 2803 2797 2793 2789 2784 2780 2776 2772 2770 2766 2766
2965 2962 2960 2958 2956 2954 2950 2947 2943 2939 2935 2931 2924 2916 2909 2901 2895 2889 2883 2876 2870 2863 2857 2850 2843 2836 2830 2824 2818 2813 2808 2804 2799 2793 2788 2784 2780 2774 2769 2765 2762 2757 2756
2958 2956 2954 2952 2950 2947 2945 2942 2938 2934 2929 2924 2917 2911 2904 2897 2890 2884 2878 2872 2865 2859 2853 2846 2839 2832 2826 2820 2815 2809 2804 2800 2795 2790 2785 2780 2777 2771 2766 2761 2758 2757 2759
2951 2950 2948 2946 2944 2941 2939 2936 2932 2928 2923 2918 2912 2905 2899 2892 2885 2879 2873 2867 2862 2856 2849 2842 2836 2829 2823 2817 2812 2806 2801 2797 2792 2787 2782 2777 2774 2770 2765 2762 2758 2757 2756
2946 2944 2942 2940 2938 2936 2933 2929 2926 2921 2916 2911 2905 2900 2893 2887 2880 2874 2868 2861 2855 2849 2844 2838 2832 2826 2820 2814 2809 2804 2798 2794 2789 2784 2780 2775 2771 2768 2765 2762 2760 2759 2758
2940 2938 2936 2934 2932 2930 2927 2923 2919 2915 2910 2905 2899 2893 2887 2881 2875 2869 2863 2857 2851 2845 2839 2834 2828 2823 2817 2812 2806 2801 2796 2792 2788 2783 2779 2775 2771 2768 2765 2763 2761 2759 2757
2933 2932 2930 2928 2926 2923 2920 2916 2912 2908 2903 2898 2893 2886 2880 2874 2868 2863 2857 2851 2845 2839 2834 2829 2824 2819 2814 2809 2803 2798 2793 2789 2785 2781 2777 2773 2770 2768 2765 2762 2760 2759 2758
2927 2925 2924 2922 2919 2917 2913 2910 2906 2902 2897 2892 2887 2881 2874 2868 2862 2857 2851 2845 2839 2834 2829 2823 2819 2815 2810 2805 2800 2795 2790 2786 2783 2780 2777 2772 2768 2764 2762 2761 2760 2759 2759
2920 2919 2917 2915 2913 2910 2907 2903 2899 2895 2890 2885 2880 2874 2868 2862 2857 2851 2845 2839 2833 2828 2823 2818 2814 2810 2806 2802 2797 2792 2787 2783 2779 2776 2774 2771 2768 2765 2762 2759 2758 2757 2756
2914 2912 2910 2908 2906 2903 2900 2897 2893 2888 2883 2878 2873 2867 2861 2855 2850 2845 2839 2832 2827 2822 2817 2812 2808 2804 2801 2797 2793 2790 2785 2781 2777 2774 2770 2768 2766 2764 2763 2761 2760 2759 2758
2907 2906 2904 2902 2899 2897 2893 2890 2886 2882 2877 2872 2866 2860 2854 2849 2843 2837 2831 2825 2820 2815 2811 2806 2802 2799 2795 2792 2789 2786 2783 2779 2775 2771 2769 2766 2764 2761 2760 2759 2758 2757 2757
2901 2899 2897 2895 2893 2890 2887 2883 2879 2875 2870 2865 2859 2853 2847 2841 2835 2829 2823 2818 2813 2808 2804 2800 2796 2792 2789 2786 2784 2781 2778 2775 2773 2769 2766 2763 2761 2759 2757 2756 2754 2753 2753